| time (UTC) | temp C | wind direction | speed KPH | gust KPH | rain 1hr cm | rain 24hr cm | rain mn cm | humidity % | barometer mb |
| 20260507075903 | 15 | 30 | 0.0 | 1.6 | 0.00 | 0.00 | 0.00 | 41 | 1014.7 |
| 20260507075403 | 15 | 30 | 0.0 | 0.0 | 0.00 | 0.00 | 0.00 | 41 | 1014.7 |
| 20260507074903 | 16 | 30 | 0.0 | 0.0 | 0.00 | 0.00 | 0.00 | 41 | 1014.7 |
| 20260507074403 | 16 | 30 | 0.0 | 0.0 | 0.00 | 0.00 | 0.00 | 40 | 1014.7 |
| 20260507073903 | 16 | 30 | 0.0 | 0.0 | 0.00 | 0.00 | 0.00 | 40 | 1014.9 |
| 20260507073403 | 16 | 30 | 0.0 | 1.6 | 0.00 | 0.00 | 0.00 | 40 | 1014.8 |
| 20260507072904 | 16 | 30 | 0.0 | 1.6 | 0.00 | 0.00 | 0.00 | 41 | 1014.9 |
| 20260507072403 | 16 | 30 | 0.0 | 1.6 | 0.00 | 0.00 | 0.00 | 41 | 1014.9 |
| 20260507071903 | 16 | 30 | 0.0 | 1.6 | 0.00 | 0.00 | 0.00 | 41 | 1014.8 |
| 20260507071403 | 16 | 30 | 0.0 | 0.0 | 0.00 | 0.00 | 0.00 | 42 | 1014.9 |
| 20260507070403 | 16 | 30 | 0.0 | 0.0 | 0.00 | 0.00 | 0.00 | 42 | 1014.9 |
| 20260507065903 | 16 | 30 | 0.0 | 3.2 | 0.00 | 0.00 | 0.00 | 39 | 1014.8 |
| 20260507065402 | 16 | 30 | 0.0 | 3.2 | 0.00 | 0.00 | 0.00 | 38 | 1014.9 |
| 20260507064903 | 16 | 30 | 0.0 | 3.2 | 0.00 | 0.00 | 0.00 | 38 | 1014.8 |
| 20260507064403 | 17 | 30 | 1.6 | 3.2 | 0.00 | 0.00 | 0.00 | 37 | 1014.9 |
| 20260507063903 | 17 | 30 | 1.6 | 3.2 | 0.00 | 0.00 | 0.00 | 36 | 1014.8 |
| 20260507062904 | 17 | 30 | 0.0 | 3.2 | 0.00 | 0.00 | 0.00 | 35 | 1014.7 |
| 20260507062403 | 17 | 45 | 0.0 | 3.2 | 0.00 | 0.00 | 0.00 | 34 | 1014.7 |
| 20260507061902 | 17 | 45 | 0.0 | 3.2 | 0.00 | 0.00 | 0.00 | 34 | 1014.7 |
| 20260507061404 | 17 | 36 | 0.0 | 3.2 | 0.00 | 0.00 | 0.00 | 33 | 1014.8 |
| 20260507060903 | 17 | 37 | 0.0 | 3.2 | 0.00 | 0.00 | 0.00 | 33 | 1014.7 |
| 20260507060404 | 17 | 37 | 0.0 | 3.2 | 0.00 | 0.00 | 0.00 | 33 | 1014.6 |
| 20260507055903 | 18 | 37 | 0.0 | 3.2 | 0.00 | 0.00 | 0.00 | 32 | 1014.7 |
| 20260507054903 | 18 | 41 | 1.6 | 3.2 | 0.00 | 0.00 | 0.00 | 32 | 1014.8 |
| 20260507054402 | 18 | 42 | 0.0 | 1.6 | 0.00 | 0.00 | 0.00 | 32 | 1014.8 |
| 20260507053403 | 18 | 41 | 0.0 | 3.2 | 0.00 | 0.00 | 0.00 | 31 | 1014.8 |
| 20260507052903 | 18 | 41 | 0.0 | 3.2 | 0.00 | 0.00 | 0.00 | 31 | 1014.7 |
| 20260507050903 | 18 | 59 | 0.0 | 1.6 | 0.00 | 0.00 | 0.00 | 32 | 1014.6 |
| 20260507050403 | 18 | 59 | 0.0 | 1.6 | 0.00 | 0.00 | 0.00 | 32 | 1014.6 |
| 20260507045403 | 18 | 101 | 0.0 | 0.0 | 0.00 | 0.00 | 0.00 | 32 | 1014.5 |
| 20260507044904 | 18 | 101 | 0.0 | 0.0 | 0.00 | 0.00 | 0.00 | 32 | 1014.5 |
| 20260507044403 | 18 | 106 | 0.0 | 1.6 | 0.00 | 0.00 | 0.00 | 31 | 1014.5 |
| 20260507043903 | 18 | 106 | 0.0 | 1.6 | 0.00 | 0.00 | 0.00 | 30 | 1014.5 |
| 20260507043403 | 19 | 126 | 0.0 | 0.0 | 0.00 | 0.00 | 0.00 | 29 | 1014.5 |
| 20260507042903 | 19 | 126 | 0.0 | 1.6 | 0.00 | 0.00 | 0.00 | 29 | 1014.4 |
| 20260507042403 | 19 | 126 | 0.0 | 1.6 | 0.00 | 0.00 | 0.00 | 28 | 1014.5 |
| 20260507041903 | 20 | 126 | 0.0 | 1.6 | 0.00 | 0.00 | 0.00 | 27 | 1014.4 |
| 20260507041403 | 20 | 126 | 0.0 | 1.6 | 0.00 | 0.00 | 0.00 | 27 | 1014.3 |
| 20260507040403 | 20 | 126 | 0.0 | 3.2 | 0.00 | 0.00 | 0.00 | 27 | 1014.3 |
| 20260507035903 | 20 | 126 | 1.6 | 3.2 | 0.00 | 0.00 | 0.00 | 28 | 1014.2 |
| 20260507035403 | 20 | 142 | 1.6 | 3.2 | 0.00 | 0.00 | 0.00 | 26 | 1014.2 |
| 20260507034903 | 21 | 155 | 0.0 | 1.6 | 0.00 | 0.00 | 0.00 | 25 | 1014.1 |
| 20260507033903 | 21 | 139 | 0.0 | 1.6 | 0.00 | 0.00 | 0.00 | 24 | 1013.9 |
| 20260507033403 | 21 | 137 | 0.0 | 3.2 | 0.00 | 0.00 | 0.00 | 23 | 1013.8 |
| 20260507032903 | 21 | 191 | 1.6 | 3.2 | 0.00 | 0.00 | 0.00 | 23 | 1013.8 |
| 20260507031402 | 22 | 274 | 0.0 | 1.6 | 0.00 | 0.00 | 0.00 | 23 | 1013.7 |
| 20260507030904 | 22 | 274 | 0.0 | 1.6 | 0.00 | 0.00 | 0.00 | 22 | 1013.6 |
| 20260507030404 | 22 | 293 | 0.0 | 1.6 | 0.00 | 0.00 | 0.00 | 22 | 1013.5 |
| 20260507025903 | 22 | 287 | 0.0 | 1.6 | 0.00 | 0.00 | 0.00 | 21 | 1013.4 |
| 20260507025403 | 22 | 287 | 0.0 | 3.2 | 0.00 | 0.00 | 0.00 | 21 | 1013.4 |
| 20260507024403 | 23 | 305 | 0.0 | 4.8 | 0.00 | 0.00 | 0.00 | 20 | 1013.2 |
| 20260507023903 | 23 | 267 | 1.6 | 4.8 | 0.00 | 0.00 | 0.00 | 20 | 1013.2 |
| 20260507023403 | 23 | 288 | 1.6 | 4.8 | 0.00 | 0.00 | 0.00 | 19 | 1013.3 |
| 20260507022903 | 23 | 193 | 1.6 | 4.8 | 0.00 | 0.00 | 0.00 | 19 | 1013.2 |
| 20260507022403 | 23 | 351 | 1.6 | 4.8 | 0.00 | 0.00 | 0.00 | 19 | 1013.2 |
| 20260507021903 | 23 | 260 | 1.6 | 8.0 | 0.00 | 0.00 | 0.00 | 18 | 1013.1 |
| 20260507021404 | 24 | 271 | 1.6 | 8.0 | 0.00 | 0.00 | 0.00 | 18 | 1013.1 |
| 20260507020903 | 24 | 283 | 1.6 | 8.0 | 0.00 | 0.00 | 0.00 | 18 | 1013.1 |
| 20260507020403 | 24 | 236 | 1.6 | 8.0 | 0.00 | 0.00 | 0.00 | 18 | 1013.1 |
| 20260507015904 | 24 | 261 | 1.6 | 8.0 | 0.00 | 0.00 | 0.00 | 18 | 1013.0 |
| 20260507015403 | 25 | 197 | 3.2 | 8.0 | 0.00 | 0.00 | 0.00 | 18 | 1013.0 |
| 20260507013403 | 25 | 166 | 1.6 | 8.0 | 0.00 | 0.00 | 0.00 | 17 | 1013.0 |
| 20260507012903 | 25 | 231 | 3.2 | 8.0 | 0.00 | 0.00 | 0.00 | 17 | 1012.9 |
| 20260507011903 | 25 | 174 | 1.6 | 11.3 | 0.00 | 0.00 | 0.00 | 17 | 1012.9 |
| 20260507011402 | 25 | 223 | 4.8 | 12.9 | 0.00 | 0.00 | 0.00 | 17 | 1013.0 |
| 20260507010903 | 25 | 274 | 1.6 | 12.9 | 0.00 | 0.00 | 0.00 | 18 | 1012.9 |
| 20260507010403 | 25 | 240 | 4.8 | 11.3 | 0.00 | 0.00 | 0.00 | 18 | 1012.9 |
| 20260507005403 | 26 | 215 | 3.2 | 16.1 | 0.00 | 0.00 | 0.00 | 17 | 1013.0 |
| 20260507004903 | 26 | 220 | 3.2 | 16.1 | 0.00 | 0.00 | 0.00 | 17 | 1012.9 |
| 20260507003903 | 26 | 249 | 4.8 | 12.9 | 0.00 | 0.00 | 0.00 | 17 | 1012.9 |
| 20260507003404 | 26 | 250 | 3.2 | 11.3 | 0.00 | 0.00 | 0.00 | 18 | 1012.8 |
| 20260507002903 | 26 | 230 | 3.2 | 12.9 | 0.00 | 0.00 | 0.00 | 18 | 1012.8 |
| 20260507002403 | 26 | 189 | 4.8 | 12.9 | 0.00 | 0.00 | 0.00 | 17 | 1012.8 |
| 20260507001903 | 26 | 144 | 3.2 | 14.5 | 0.00 | 0.00 | 0.00 | 18 | 1012.9 |
| 20260507001403 | 26 | 170 | 3.2 | 14.5 | 0.00 | 0.00 | 0.00 | 18 | 1012.8 |
| 20260507000903 | 26 | 298 | 3.2 | 12.9 | 0.00 | 0.00 | 0.00 | 18 | 1012.9 |
| 20260507000405 | 27 | 225 | 4.8 | 8.0 | 0.00 | 0.00 | 0.00 | 18 | 1012.9 |
| 20260506235903 | 26 | 237 | 4.8 | 14.5 | 0.00 | 0.00 | 0.00 | 18 | 1012.9 |
| 20260506235403 | 26 | 262 | 4.8 | 14.5 | 0.00 | 0.00 | 0.00 | 18 | 1012.8 |
| 20260506234903 | 26 | 239 | 3.2 | 11.3 | 0.00 | 0.00 | 0.00 | 18 | 1012.9 |
| 20260506234403 | 27 | 338 | 3.2 | 11.3 | 0.00 | 0.00 | 0.00 | 18 | 1012.8 |
| 20260506233904 | 27 | 324 | 4.8 | 11.3 | 0.00 | 0.00 | 0.00 | 18 | 1012.8 |
| 20260506232903 | 27 | 210 | 3.2 | 11.3 | 0.00 | 0.00 | 0.00 | 18 | 1012.8 |
| 20260506232403 | 27 | 215 | 4.8 | 14.5 | 0.00 | 0.00 | 0.00 | 18 | 1012.9 |
| 20260506230903 | 27 | 198 | 3.2 | 11.3 | 0.00 | 0.00 | 0.00 | 18 | 1013.0 |
| 20260506230403 | 27 | 240 | 3.2 | 11.3 | 0.00 | 0.00 | 0.00 | 18 | 1013.1 |
| 20260506225403 | 27 | 220 | 4.8 | 12.9 | 0.00 | 0.00 | 0.00 | 18 | 1013.2 |
| 20260506224903 | 27 | 266 | 1.6 | 12.9 | 0.00 | 0.00 | 0.00 | 19 | 1013.2 |
| 20260506224403 | 27 | 200 | 6.4 | 12.9 | 0.00 | 0.00 | 0.00 | 19 | 1013.2 |
| 20260506223404 | 27 | 228 | 4.8 | 19.3 | 0.00 | 0.00 | 0.00 | 18 | 1013.3 |
| 20260506222903 | 27 | 236 | 4.8 | 12.9 | 0.00 | 0.00 | 0.00 | 19 | 1013.4 |
| 20260506222403 | 27 | 239 | 3.2 | 16.1 | 0.00 | 0.00 | 0.00 | 18 | 1013.3 |
| 20260506221903 | 27 | 267 | 3.2 | 16.1 | 0.00 | 0.00 | 0.00 | 19 | 1013.5 |
| 20260506220903 | 27 | 227 | 6.4 | 19.3 | 0.00 | 0.00 | 0.00 | 19 | 1013.6 |
| 20260506220403 | 27 | 230 | 4.8 | 19.3 | 0.00 | 0.00 | 0.00 | 19 | 1013.6 |
| 20260506215904 | 27 | 195 | 4.8 | 14.5 | 0.00 | 0.00 | 0.00 | 19 | 1013.6 |
| 20260506215404 | 27 | 218 | 3.2 | 16.1 | 0.00 | 0.00 | 0.00 | 19 | 1013.6 |
| 20260506214403 | 27 | 165 | 4.8 | 12.9 | 0.00 | 0.00 | 0.00 | 20 | 1013.8 |
| 20260506213903 | 27 | 232 | 4.8 | 12.9 | 0.00 | 0.00 | 0.00 | 19 | 1013.8 |
| 20260506213403 | 27 | 226 | 4.8 | 12.9 | 0.00 | 0.00 | 0.00 | 20 | 1013.9 |
| 20260506212903 | 27 | 283 | 3.2 | 19.3 | 0.00 | 0.00 | 0.00 | 21 | 1014.0 |
| 20260506212404 | 27 | 352 | 8.0 | 19.3 | 0.00 | 0.00 | 0.00 | 20 | 1014.0 |
| 20260506210903 | 27 | 356 | 3.2 | 16.1 | 0.00 | 0.00 | 0.00 | 21 | 1014.2 |
| 20260506210403 | 27 | 175 | 1.6 | 19.3 | 0.00 | 0.00 | 0.00 | 22 | 1014.3 |
| 20260506205903 | 27 | 20 | 4.8 | 19.3 | 0.00 | 0.00 | 0.00 | 21 | 1014.3 |
| 20260506204903 | 26 | 202 | 4.8 | 12.9 | 0.00 | 0.00 | 0.00 | 23 | 1014.3 |
| 20260506204403 | 26 | 213 | 3.2 | 14.5 | 0.00 | 0.00 | 0.00 | 23 | 1014.4 |
| 20260506203903 | 26 | 199 | 3.2 | 14.5 | 0.00 | 0.00 | 0.00 | 24 | 1014.5 |
| 20260506203403 | 26 | 274 | 4.8 | 12.9 | 0.00 | 0.00 | 0.00 | 22 | 1014.5 |
| 20260506202903 | 27 | 211 | 4.8 | 12.9 | 0.00 | 0.00 | 0.00 | 22 | 1014.6 |
| 20260506202404 | 26 | 227 | 8.0 | 12.9 | 0.00 | 0.00 | 0.00 | 23 | 1014.6 |
| 20260506201903 | 26 | 280 | 3.2 | 12.9 | 0.00 | 0.00 | 0.00 | 24 | 1014.6 |
| 20260506201403 | 26 | 226 | 4.8 | 14.5 | 0.00 | 0.00 | 0.00 | 24 | 1014.7 |
| 20260506200903 | 26 | 232 | 8.0 | 16.1 | 0.00 | 0.00 | 0.00 | 23 | 1014.7 |
| 20260506200403 | 26 | 213 | 4.8 | 16.1 | 0.00 | 0.00 | 0.00 | 24 | 1014.8 |
| 20260506195903 | 25 | 190 | 3.2 | 16.1 | 0.00 | 0.00 | 0.00 | 24 | 1014.9 |
| 20260506195403 | 25 | 210 | 3.2 | 16.1 | 0.00 | 0.00 | 0.00 | 25 | 1014.8 |
| 20260506194903 | 26 | 233 | 3.2 | 9.7 | 0.00 | 0.00 | 0.00 | 25 | 1014.9 |
| 20260506194404 | 25 | 255 | 1.6 | 9.7 | 0.00 | 0.00 | 0.00 | 24 | 1015.0 |
| 20260506193903 | 26 | 46 | 3.2 | 12.9 | 0.00 | 0.00 | 0.00 | 25 | 1015.1 |
| 20260506193403 | 26 | 306 | 4.8 | 12.9 | 0.00 | 0.00 | 0.00 | 24 | 1015.1 |
| 20260506192904 | 25 | 211 | 4.8 | 14.5 | 0.00 | 0.00 | 0.00 | 25 | 1015.1 |
| 20260506192404 | 25 | 321 | 4.8 | 16.1 | 0.00 | 0.00 | 0.00 | 25 | 1015.3 |
| 20260506191403 | 25 | 21 | 3.2 | 8.0 | 0.00 | 0.00 | 0.00 | 26 | 1015.4 |
| 20260506190903 | 25 | 199 | 1.6 | 9.7 | 0.00 | 0.00 | 0.00 | 26 | 1015.4 |
| 20260506185403 | 24 | 207 | 4.8 | 12.9 | 0.00 | 0.00 | 0.00 | 26 | 1015.5 |
| 20260506184903 | 24 | 229 | 4.8 | 11.3 | 0.00 | 0.00 | 0.00 | 28 | 1015.7 |
| 20260506184403 | 23 | 245 | 1.6 | 8.0 | 0.00 | 0.00 | 0.00 | 29 | 1015.7 |
| 20260506183904 | 23 | 144 | 3.2 | 16.1 | 0.00 | 0.00 | 0.00 | 28 | 1015.8 |
| 20260506183403 | 24 | 218 | 6.4 | 16.1 | 0.00 | 0.00 | 0.00 | 27 | 1015.8 |
| 20260506182903 | 24 | 246 | 3.2 | 11.3 | 0.00 | 0.00 | 0.00 | 30 | 1015.9 |
| 20260506181903 | 23 | 40 | 3.2 | 8.0 | 0.00 | 0.00 | 0.00 | 29 | 1016.1 |
| 20260506181404 | 23 | 231 | 4.8 | 9.7 | 0.00 | 0.00 | 0.00 | 30 | 1016.1 |
| 20260506180904 | 23 | 208 | 4.8 | 9.7 | 0.00 | 0.00 | 0.00 | 31 | 1016.2 |
| 20260506180403 | 22 | 277 | 1.6 | 11.3 | 0.00 | 0.00 | 0.00 | 31 | 1016.3 |
| 20260506175903 | 23 | 305 | 3.2 | 11.3 | 0.00 | 0.00 | 0.00 | 30 | 1016.3 |
| 20260506175403 | 22 | 296 | 3.2 | 11.3 | 0.00 | 0.00 | 0.00 | 32 | 1016.3 |
| 20260506174404 | 22 | 131 | 3.2 | 11.3 | 0.00 | 0.00 | 0.00 | 31 | 1016.1 |
| 20260506173403 | 22 | 9 | 3.2 | 9.7 | 0.00 | 0.00 | 0.00 | 33 | 1016.2 |
| 20260506172903 | 22 | 277 | 3.2 | 4.8 | 0.00 | 0.00 | 0.00 | 33 | 1016.2 |
| 20260506171904 | 22 | 232 | 1.6 | 9.7 | 0.00 | 0.00 | 0.00 | 33 | 1016.2 |
| 20260506171403 | 22 | 235 | 1.6 | 8.0 | 0.00 | 0.00 | 0.00 | 33 | 1016.2 |
| 20260506170903 | 22 | 304 | 3.2 | 4.8 | 0.00 | 0.00 | 0.00 | 34 | 1016.3 |
| 20260506170404 | 21 | 79 | 1.6 | 9.7 | 0.00 | 0.00 | 0.00 | 34 | 1016.3 |
| 20260506165403 | 22 | 225 | 3.2 | 4.8 | 0.00 | 0.00 | 0.00 | 36 | 1016.3 |
| 20260506164903 | 21 | 281 | 1.6 | 4.8 | 0.00 | 0.00 | 0.00 | 35 | 1016.2 |
| 20260506164403 | 20 | 9 | 0.0 | 8.0 | 0.00 | 0.00 | 0.00 | 37 | 1016.2 |
| 20260506163903 | 20 | 235 | 1.6 | 8.0 | 0.00 | 0.00 | 0.00 | 38 | 1016.2 |
| 20260506162903 | 21 | 32 | 1.6 | 4.8 | 0.00 | 0.00 | 0.00 | 35 | 1016.2 |
| 20260506162403 | 21 | 307 | 3.2 | 4.8 | 0.00 | 0.00 | 0.00 | 37 | 1016.2 |
| 20260506161903 | 20 | 35 | 1.6 | 4.8 | 0.00 | 0.00 | 0.00 | 38 | 1016.1 |
| 20260506161403 | 20 | 341 | 1.6 | 4.8 | 0.00 | 0.00 | 0.00 | 39 | 1016.1 |
| 20260506160903 | 20 | 9 | 1.6 | 4.8 | 0.00 | 0.00 | 0.00 | 39 | 1016.1 |
| 20260506160403 | 20 | 91 | 3.2 | 4.8 | 0.00 | 0.00 | 0.00 | 40 | 1016.1 |
| 20260506155903 | 19 | 79 | 1.6 | 8.0 | 0.00 | 0.00 | 0.00 | 41 | 1016.1 |
| 20260506155403 | 19 | 209 | 1.6 | 8.0 | 0.00 | 0.00 | 0.00 | 42 | 1016.0 |
| 20260506154903 | 19 | 71 | 3.2 | 4.8 | 0.00 | 0.00 | 0.00 | 42 | 1016.0 |
| 20260506154404 | 18 | 274 | 0.0 | 4.8 | 0.00 | 0.00 | 0.00 | 43 | 1015.9 |
| 20260506153904 | 18 | 31 | 3.2 | 4.8 | 0.00 | 0.00 | 0.00 | 43 | 1016.0 |
| 20260506153403 | 18 | 191 | 1.6 | 4.8 | 0.00 | 0.00 | 0.00 | 45 | 1016.1 |
| 20260506152903 | 18 | 56 | 3.2 | 4.8 | 0.00 | 0.00 | 0.00 | 49 | 1016.1 |
| 20260506151404 | 17 | 237 | 1.6 | 4.8 | 0.00 | 0.00 | 0.00 | 48 | 1016.1 |
| 20260506150903 | 17 | 131 | 1.6 | 4.8 | 0.00 | 0.00 | 0.00 | 49 | 1016.1 |
| 20260506150403 | 17 | 235 | 1.6 | 4.8 | 0.00 | 0.00 | 0.00 | 50 | 1016.1 |
| 20260506145903 | 17 | 107 | 0.0 | 3.2 | 0.00 | 0.00 | 0.00 | 50 | 1016.1 |
| 20260506144903 | 16 | 112 | 1.6 | 4.8 | 0.00 | 0.00 | 0.00 | 52 | 1016.0 |
| 20260506144403 | 16 | 142 | 1.6 | 4.8 | 0.00 | 0.00 | 0.00 | 52 | 1016.0 |
| 20260506143904 | 16 | 106 | 1.6 | 4.8 | 0.00 | 0.00 | 0.00 | 52 | 1016.0 |
| 20260506143403 | 16 | 131 | 1.6 | 4.8 | 0.00 | 0.00 | 0.00 | 52 | 1016.0 |
| 20260506142904 | 16 | 110 | 1.6 | 4.8 | 0.00 | 0.00 | 0.00 | 53 | 1016.0 |
| 20260506142403 | 15 | 151 | 1.6 | 4.8 | 0.00 | 0.00 | 0.00 | 53 | 1016.1 |
| 20260506141904 | 15 | 79 | 1.6 | 4.8 | 0.00 | 0.00 | 0.00 | 54 | 1016.0 |
| 20260506141403 | 15 | 127 | 1.6 | 4.8 | 0.00 | 0.00 | 0.00 | 55 | 1016.1 |
| 20260506140903 | 14 | 104 | 3.2 | 4.8 | 0.00 | 0.00 | 0.00 | 56 | 1016.0 |
| 20260506140403 | 14 | 105 | 1.6 | 4.8 | 0.00 | 0.00 | 0.00 | 57 | 1015.9 |
| 20260506135903 | 14 | 164 | 1.6 | 3.2 | 0.00 | 0.00 | 0.00 | 58 | 1015.9 |
| 20260506135403 | 14 | 107 | 1.6 | 4.8 | 0.00 | 0.00 | 0.00 | 58 | 1015.9 |
| 20260506134903 | 13 | 117 | 1.6 | 4.8 | 0.00 | 0.00 | 0.00 | 59 | 1015.9 |
| 20260506134403 | 13 | 78 | 0.0 | 1.6 | 0.00 | 0.00 | 0.00 | 62 | 1015.9 |
| 20260506133903 | 13 | 76 | 0.0 | 0.0 | 0.00 | 0.00 | 0.00 | 65 | 1015.8 |
| 20260506133403 | 12 | 75 | 0.0 | 0.0 | 0.00 | 0.00 | 0.00 | 66 | 1015.8 |
| 20260506132903 | 12 | 75 | 0.0 | 0.0 | 0.00 | 0.00 | 0.00 | 68 | 1015.8 |
| 20260506132405 | 12 | 75 | 0.0 | 0.0 | 0.00 | 0.00 | 0.00 | 68 | 1015.6 |
| 20260506131403 | 11 | 120 | 0.0 | 0.0 | 0.00 | 0.00 | 0.00 | 70 | 1015.4 |
| 20260506130903 | 11 | 125 | 0.0 | 1.6 | 0.00 | 0.00 | 0.00 | 72 | 1015.4 |
| 20260506130404 | 11 | 141 | 0.0 | 1.6 | 0.00 | 0.00 | 0.00 | 72 | 1015.2 |
| 20260506125903 | 11 | 199 | 0.0 | 1.6 | 0.00 | 0.00 | 0.00 | 73 | 1015.4 |
| 20260506125403 | 11 | 217 | 0.0 | 1.6 | 0.00 | 0.00 | 0.00 | 73 | 1015.4 |
| 20260506124903 | 11 | 217 | 0.0 | 0.0 | 0.00 | 0.00 | 0.00 | 73 | 1015.3 |
| 20260506124404 | 11 | 217 | 0.0 | 1.6 | 0.00 | 0.00 | 0.00 | 72 | 1015.4 |
| 20260506123403 | 11 | 217 | 0.0 | 1.6 | 0.00 | 0.00 | 0.00 | 72 | 1015.2 |
| 20260506122904 | 11 | 217 | 0.0 | 1.6 | 0.00 | 0.00 | 0.00 | 72 | 1015.2 |
| 20260506122403 | 11 | 217 | 0.0 | 0.0 | 0.00 | 0.00 | 0.00 | 72 | 1015.1 |
| 20260506121903 | 11 | 217 | 0.0 | 0.0 | 0.00 | 0.00 | 0.00 | 71 | 1015.1 |
| 20260506121403 | 11 | 217 | 0.0 | 0.0 | 0.00 | 0.00 | 0.00 | 71 | 1015.1 |
| 20260506120903 | 11 | 217 | 0.0 | 3.2 | 0.00 | 0.00 | 0.00 | 70 | 1015.1 |
| 20260506120403 | 12 | 217 | 1.6 | 3.2 | 0.00 | 0.00 | 0.00 | 69 | 1015.0 |
| 20260506115903 | 12 | 355 | 0.0 | 0.0 | 0.00 | 0.00 | 0.00 | 68 | 1014.9 |
| 20260506115403 | 12 | 355 | 0.0 | 1.6 | 0.00 | 0.00 | 0.00 | 67 | 1014.9 |
| 20260506114903 | 12 | 355 | 0.0 | 1.6 | 0.00 | 0.00 | 0.00 | 66 | 1014.8 |
| 20260506114403 | 12 | 355 | 0.0 | 4.8 | 0.00 | 0.00 | 0.00 | 66 | 1014.8 |
| 20260506113903 | 12 | 355 | 0.0 | 4.8 | 0.00 | 0.00 | 0.00 | 66 | 1014.8 |
| 20260506112903 | 12 | 5 | 0.0 | 3.2 | 0.00 | 0.00 | 0.00 | 66 | 1014.8 |
| 20260506112403 | 12 | 5 | 0.0 | 3.2 | 0.00 | 0.00 | 0.00 | 66 | 1014.7 |
| 20260506111904 | 12 | 5 | 0.0 | 1.6 | 0.00 | 0.00 | 0.00 | 66 | 1014.7 |
| 20260506111404 | 12 | 5 | 0.0 | 3.2 | 0.00 | 0.00 | 0.00 | 66 | 1014.7 |
| 20260506110904 | 13 | 5 | 0.0 | 3.2 | 0.00 | 0.03 | 0.00 | 65 | 1014.6 |
| 20260506105904 | 13 | 5 | 1.6 | 3.2 | 0.00 | 0.03 | 0.00 | 63 | 1014.5 |
| 20260506105404 | 13 | 5 | 0.0 | 3.2 | 0.00 | 0.03 | 0.00 | 63 | 1014.5 |
| 20260506104903 | 13 | 348 | 0.0 | 4.8 | 0.00 | 0.03 | 0.00 | 62 | 1014.5 |
| 20260506104403 | 13 | 338 | 1.6 | 4.8 | 0.00 | 0.03 | 0.00 | 62 | 1014.4 |
| 20260506103903 | 13 | 333 | 1.6 | 4.8 | 0.00 | 0.05 | 0.00 | 62 | 1014.4 |
| 20260506103403 | 13 | 349 | 1.6 | 3.2 | 0.00 | 0.05 | 0.00 | 62 | 1014.3 |
| 20260506102905 | 13 | 354 | 1.6 | 3.2 | 0.00 | 0.05 | 0.00 | 62 | 1014.3 |
| 20260506102403 | 13 | 5 | 1.6 | 3.2 | 0.00 | 0.05 | 0.00 | 62 | 1014.3 |
| 20260506101903 | 13 | 6 | 0.0 | 1.6 | 0.00 | 0.05 | 0.00 | 62 | 1014.2 |
| 20260506101403 | 12 | 5 | 0.0 | 3.2 | 0.00 | 0.08 | 0.00 | 62 | 1014.2 |
| 20260506100904 | 12 | 5 | 0.0 | 3.2 | 0.00 | 0.08 | 0.00 | 63 | 1014.1 |
| 20260506100403 | 12 | 5 | 1.6 | 1.6 | 0.00 | 0.08 | 0.00 | 62 | 1014.2 |
| 20260506095903 | 12 | 345 | 0.0 | 0.0 | 0.00 | 0.08 | 0.00 | 62 | 1014.1 |
| 20260506094903 | 12 | 345 | 0.0 | 0.0 | 0.00 | 0.08 | 0.00 | 61 | 1014.0 |
| 20260506094403 | 12 | 345 | 0.0 | 0.0 | 0.00 | 0.08 | 0.00 | 60 | 1014.0 |
| 20260506093903 | 12 | 345 | 0.0 | 0.0 | 0.00 | 0.08 | 0.00 | 60 | 1014.0 |
| 20260506093403 | 12 | 345 | 0.0 | 0.0 | 0.00 | 0.08 | 0.00 | 60 | 1014.0 |
| 20260506092904 | 12 | 345 | 0.0 | 0.0 | 0.00 | 0.08 | 0.00 | 60 | 1014.0 |
| 20260506091404 | 13 | 345 | 0.0 | 0.0 | 0.00 | 0.08 | 0.00 | 59 | 1013.9 |
| 20260506090404 | 13 | 345 | 0.0 | 0.0 | 0.00 | 0.08 | 0.00 | 58 | 1013.9 |
| 20260506084903 | 13 | 345 | 0.0 | 0.0 | 0.00 | 0.10 | 0.00 | 55 | 1014.1 |
| 20260506083903 | 13 | 345 | 0.0 | 0.0 | 0.00 | 0.10 | 0.00 | 54 | 1014.2 |
| 20260506083404 | 13 | 345 | 0.0 | 0.0 | 0.00 | 0.10 | 0.00 | 54 | 1014.2 |
| 20260506082903 | 14 | 345 | 0.0 | 0.0 | 0.00 | 0.10 | 0.00 | 52 | 1014.2 |
| 20260506082404 | 15 | 345 | 0.0 | 0.0 | 0.00 | 0.13 | 0.00 | 50 | 1014.2 |
| 20260506081404 | 15 | 345 | 0.0 | 1.6 | 0.00 | 0.15 | 0.00 | 47 | 1014.2 |
| 20260506080903 | 15 | 345 | 0.0 | 1.6 | 0.00 | 0.18 | 0.00 | 47 | 1014.2 |
| 20260506080403 | 15 | 342 | 0.0 | 3.2 | 0.00 | 0.18 | 0.00 | 47 | 1014.2 |